This demonstration page uses our WeatherBlox Daily Observations layout. Learn more.

Hourly Observations for February 25, 2019

Temp ( °F °C ) Dew Point ( °F °C ) Humidity (%) Winds ( mph kmh ) Pressure ( in mb ) Visibility ( mi km ) Precip ( " mm )
12:54 am 00:54 Clear -1 -18.3 -5 -20.6 82 82 NNW 3 6 30.53 1034 10 16.0934 0 0
1:54 am 01:54 Clear -5 -20.6 -8 -22.2 87 87 Calm 30.55 1035 10 16.0934 0 0
2:54 am 02:54 Clear -6 -21.1 -9 -22.8 86 86 N 6 9 30.53 1034 10 16.0934 0 0
3:54 am 03:54 Clear -6 -21.1 -10 -23.3 83 83 N 7 11 30.52 1033 10 16.0934 0 0
4:54 am 04:54 Clear -7 -21.7 -11 -23.9 82 82 NNE 7 11 30.5 1033 10 16.0934 0 0
5:54 am 05:54 Clear -5 -20.6 -8 -22.2 87 87 N 6 9 30.51 1033 10 16.0934 0 0
6:54 am 06:54 Clear -5 -20.6 -9 -22.8 83 83 N 6 9 30.51 1033 10 16.0934 0 0
7:54 am 07:54 Sunny -3 -19.4 -8 -22.2 79 79 N 6 9 30.51 1033 10 16.0934 0 0
8:54 am 08:54 Sunny 2 -16.7 -3 -19.4 80 80 ENE 12 19 30.51 1033 10 16.0934 0 0
9:54 am 09:54 Sunny 4 -15.6 -4 -20 69 69 E 14 22 30.51 1033 10 16.0934 0 0
10:54 am 10:54 Sunny 7 -13.9 -3 -19.4 63 63 ENE 10 17 30.51 1033 10 16.0934 0 0
11:54 am 11:54 Sunny 8 -13.3 -2 -18.9 63 63 NNE 13 20 30.51 1033 10 16.0934 0 0
12:54 pm 12:54 Sunny 9 -12.8 -1 -18.3 64 64 NNE 15 24 30.49 1033 10 16.0934 0 0
1:54 pm 13:54 Sunny 11 -11.7 -2 -18.9 55 55 NNE 14 22 30.46 1032 10 16.0934 0 0
2:51 pm 14:51 Mostly Cloudy 10 -12 0 -18 61 61 NNE 16 26 30.48 1032 10 16.0934 0 0
2:54 pm 14:54 Mostly Cloudy 11 -11.7 -1 -18.3 58 58 NNE 15 24 30.46 1031 10 16.0934 0 0
3:54 pm 15:54 Cloudy 11 -11.7 0 -17.8 61 61 NNE 14 22 30.47 1032 10 16.0934 0 0
4:54 pm 16:54 Cloudy 11 -11.7 0 -17.8 61 61 NNE 12 19 30.47 1032 10 16.0934 0 0
5:14 pm 17:14 Cloudy 11 -11.7 1 -17.2 64 64 NNE 13 20 30.5 1033 10 16.0934 0 0
5:54 pm 17:54 Cloudy 11 -11.7 1 -17.2 64 64 NNE 15 24 30.48 1032 10 16.0934 0 0
6:54 pm 18:54 Cloudy 9 -12.8 0 -17.8 66 66 NNE 18 30 30.49 1033 10 16.0934 0 0
7:54 pm 19:54 Cloudy 9 -12.8 0 -17.8 66 66 NNE 18 30 30.51 1033 10 16.0934 0 0
8:54 pm 20:54 Cloudy 7 -13.9 1 -17.2 76 76 NNE 17 28 30.5 1033 10 16.0934 0 0
9:54 pm 21:54 Cloudy 7 -13.9 1 -17.2 76 76 NNE 17 28 30.51 1033 10 16.0934 0 0
10:54 pm 22:54 Cloudy 6 -14.4 0 -17.8 76 76 NNE 15 24 30.52 1033 10 16.0934 0 0
11:10 pm 23:10 Cloudy 6 -14.4 0 -17.8 76 76 NNE 16 26 30.58 1035 10 16.0934 0 0
11:51 pm 23:51 Cloudy 5 -15 0 -18 78 78 NNE 16 26 30.57 1035 10 16.0934 0 0
11:54 pm 23:54 Cloudy 5 -15 0 -17.8 79 79 NNE 16 26 30.51 1033 10 16.0934 0 0

Powered by AerisWeather